Rochester/St. Mary\'s Hospita, MN

10:48 PM CDT on June 20, 2018 (GMT -0500)
Rochester/St. Mary\'s Hospita

Weather History for K9MN - October, 2017

Change the Weather History Date:

Monday, October 2, 2017

  Actual Average (KRST) Record (KRST)
Temperature  
Mean Temperature 65 °F -  
Max Temperature 75 °F 65 °F 90 °F (1953)
Min Temperature 55 °F 40 °F 19 °F (2003)
Growing Degree Days 15 (Base 50)    
Moisture  
Dew Point 57 °F    
Average Humidity 75    
Maximum Humidity 96    
Minimum Humidity 47    
Precipitation  
Precipitation 0.17 in - - ()
Sea Level Pressure  
Sea Level Pressure 29.92 in    
Wind  
Wind Speed 11 mph (SE)    
Max Wind Speed 16 mph    
Max Gust Speed 26 mph    
Visibility 10 miles    
Events      
Averages and records for this station are not official NWS values.
T = Trace of Precipitation, MM = Missing Value Source: NWS Daily Summary

Daily Weather History Graph

Daily Weather History Graph

Search for Another Location

Airport or City:

Astronomy

Oct. 02, 2017 Rise Set
Actual Time 7:09 AM CDT 6:48 PM CDT
Civil Twilight 6:40 AM CDT 7:17 PM CDT
Nautical Twilight 6:06 AM CDT 7:50 PM CDT
Astronomical Twilight 5:32 AM CDT 8:24 PM CDT
Moon 5:33 PM CDT (10/2) 3:30 AM CDT (10/2)
Length of Visible Light 12h 36m
Length of Day
11h 39m
Waxing Gibbous, 89% of the Moon is Illuminated
Oct 2
Waxing Gibbous
Oct 5
Full
Oct 12
Last Quarter
Oct 19
New
Oct 27
First Quarter

Hourly Weather History & Observations

Time (CDT) Temp. Dew Point Humidity Pressure Visibility Wind Dir Wind Speed Gust Speed Precip Events Conditions
12:12 AM 60.6 °F 40.6 °F 48% 29.94 in 10.0 mi ESE 12.7 mph 20.7 mph N/A   Overcast
12:32 AM 60.4 °F 40.5 °F 48% 29.93 in 10.0 mi ESE 15.0 mph 20.7 mph N/A   Overcast
12:51 AM 60.4 °F 40.1 °F 47% 29.92 in 10.0 mi ESE 13.8 mph 20.7 mph N/A   Overcast
1:12 AM 60.3 °F 40.1 °F 47% 29.91 in 10.0 mi ESE 15.0 mph 20.7 mph N/A   Overcast
1:32 AM 60.4 °F 40.1 °F 47% 29.91 in 10.0 mi SE 15.0 mph 20.7 mph N/A   Overcast
1:51 AM 60.4 °F 40.1 °F 47% 29.91 in 10.0 mi SE 15.0 mph 21.9 mph N/A   Overcast
2:12 AM 61.0 °F 40.6 °F 47% 29.90 in 10.0 mi SE 13.8 mph 19.6 mph N/A   Overcast
2:32 AM 59.9 °F 41.9 °F 51% 29.90 in 10.0 mi SE 13.8 mph 20.7 mph N/A   Overcast
2:51 AM 60.1 °F 42.3 °F 52% 29.90 in 10.0 mi SE 9.2 mph 19.6 mph N/A   Overcast
3:12 AM 59.5 °F 43.7 °F 56% 29.89 in 10.0 mi SE 9.2 mph 18.4 mph N/A   Overcast
3:32 AM 57.6 °F 45.9 °F 65% 29.88 in 10.0 mi ESE 12.7 mph 17.3 mph N/A   Overcast
3:51 AM 57.2 °F 46.6 °F 68% 29.89 in 10.0 mi SE 6.9 mph - N/A   Overcast
4:12 AM 57.4 °F 46.9 °F 68% 29.91 in 10.0 mi ESE 5.8 mph - N/A   Overcast
4:32 AM 57.4 °F 47.3 °F 69% 29.92 in 10.0 mi SE 3.5 mph - 0.01 in   Overcast
4:51 AM 57.4 °F 48.6 °F 72% 29.92 in 10.0 mi SSE 5.8 mph 16.1 mph 0.01 in   Overcast
5:12 AM 56.1 °F 50.5 °F 82% 29.92 in 10.0 mi ESE 8.1 mph - 0.01 in   Overcast
5:32 AM 55.4 °F 52.0 °F 88% 29.92 in 10.0 mi ESE 9.2 mph - 0.03 in   Overcast
5:51 AM 55.4 °F 53.6 °F 94% 29.90 in 10.0 mi ESE 5.8 mph - 0.06 in   Overcast
6:12 AM 56.3 °F 54.5 °F 94% 29.92 in 10.0 mi South 3.5 mph - 0.01 in   Overcast
6:31 AM 56.5 °F 55.4 °F 96% 29.93 in 10.0 mi SSE 5.8 mph - 0.03 in   Overcast
6:52 AM 57.0 °F 55.4 °F 94% 29.92 in 10.0 mi SE 9.2 mph - 0.03 in   Overcast
7:12 AM 57.0 °F 55.4 °F 94% 29.92 in 10.0 mi SE 10.4 mph - N/A   Scattered Clouds
7:31 AM 57.2 °F 56.1 °F 96% 29.91 in 10.0 mi SE 11.5 mph - N/A   Clear
7:52 AM 58.5 °F 56.7 °F 94% 29.93 in 5.0 mi SE 9.2 mph - N/A   Scattered Clouds
8:12 AM 59.0 °F 57.2 °F 94% 29.96 in 10.0 mi SSE 6.9 mph - N/A   Mostly Cloudy
8:31 AM 59.0 °F 57.6 °F 95% 29.94 in 10.0 mi SE 8.1 mph - N/A   Overcast
8:52 AM 59.2 °F 58.1 °F 96% 29.94 in 10.0 mi SE 3.5 mph - N/A   Overcast
9:12 AM 59.4 °F 58.1 °F 96% 29.95 in 10.0 mi ESE 6.9 mph - N/A   Overcast
9:31 AM 59.7 °F 58.6 °F 96% 29.95 in 10.0 mi SE 8.1 mph - N/A   Overcast
9:52 AM 60.8 °F 59.4 °F 95% 29.95 in 10.0 mi SE 9.2 mph - N/A   Overcast
10:12 AM 62.1 °F 60.1 °F 93% 29.94 in 10.0 mi SE 9.2 mph 17.3 mph N/A   Overcast
10:31 AM 63.9 °F 61.0 °F 90% 29.95 in 10.0 mi SSE 15.0 mph 21.9 mph N/A   Overcast
10:52 AM 64.6 °F 61.5 °F 90% 29.96 in 10.0 mi SE 9.2 mph 18.4 mph N/A   Overcast
11:12 AM 65.8 °F 62.1 °F 88% 29.96 in 10.0 mi SSE 10.4 mph 18.4 mph N/A   Overcast
11:31 AM 66.2 °F 62.4 °F 88% 29.95 in 10.0 mi SE 11.5 mph 19.6 mph N/A   Overcast
11:52 AM 65.3 °F 63.3 °F 93% 29.96 in 5.0 mi SSE 10.4 mph 16.1 mph 0.06 in   Overcast
12:12 PM 66.2 °F 63.9 °F 92% 29.95 in 10.0 mi SSE 8.1 mph - N/A   Overcast
12:31 PM 66.7 °F 63.7 °F 90% 29.96 in 10.0 mi South 9.2 mph 20.7 mph 0.01 in   Overcast
12:52 PM 67.5 °F 63.7 °F 88% 29.96 in 10.0 mi South 12.7 mph 18.4 mph 0.01 in   Overcast
1:12 PM 68.7 °F 63.5 °F 83% 29.95 in 10.0 mi South 11.5 mph 17.3 mph N/A   Overcast
1:31 PM 68.9 °F 63.0 °F 81% 29.96 in 10.0 mi South 11.5 mph 21.9 mph N/A   Overcast
1:52 PM 68.5 °F 63.1 °F 83% 29.95 in 10.0 mi SSE 10.4 mph - N/A   Overcast
2:12 PM 68.5 °F 63.1 °F 83% 29.94 in 10.0 mi SSE 12.7 mph 18.4 mph N/A   Overcast
2:31 PM 68.7 °F 63.5 °F 83% 29.94 in 10.0 mi SSE 6.9 mph - N/A   Overcast
2:52 PM 68.9 °F 63.7 °F 83% 29.94 in 10.0 mi SSE 6.9 mph - N/A   Overcast
3:12 PM 69.1 °F 63.9 °F 83% 29.92 in 10.0 mi SSE 4.6 mph - N/A   Overcast
3:32 PM 69.8 °F 63.9 °F 81% 29.90 in 10.0 mi SE 8.1 mph - N/A   Overcast
3:52 PM 69.8 °F 64.4 °F 83% 29.91 in 10.0 mi SE 8.1 mph - N/A   Overcast
4:12 PM 71.4 °F 63.5 °F 76% 29.90 in 10.0 mi SE 16.1 mph 21.9 mph N/A   Overcast
4:32 PM 73.4 °F 62.8 °F 69% 29.90 in 10.0 mi SSE 15.0 mph 23.0 mph N/A   Overcast
4:52 PM 73.6 °F 63.0 °F 69% 29.91 in 10.0 mi SSE 10.4 mph 20.7 mph N/A   Overcast
5:11 PM 74.3 °F 63.3 °F 68% 29.91 in 10.0 mi SSE 9.2 mph 19.6 mph N/A   Overcast
5:32 PM 75.2 °F 63.1 °F 66% 29.91 in 10.0 mi SE 9.2 mph 16.1 mph N/A   Overcast
5:52 PM 75.4 °F 63.0 °F 65% 29.90 in 10.0 mi SE 12.7 mph 18.4 mph N/A   Mostly Cloudy
6:11 PM 75.2 °F 62.8 °F 65% 29.91 in 10.0 mi SE 11.5 mph 16.1 mph N/A   Mostly Cloudy
6:32 PM 74.8 °F 63.0 °F 66% 29.91 in 10.0 mi SE 9.2 mph - N/A   Overcast
6:52 PM 74.3 °F 63.1 °F 68% 29.90 in 10.0 mi SE 10.4 mph 16.1 mph N/A   Mostly Cloudy
7:11 PM 74.3 °F 63.0 °F 68% 29.89 in 10.0 mi SE 12.7 mph 19.6 mph N/A   Overcast
7:32 PM 73.6 °F 62.8 °F 69% 29.90 in 10.0 mi SE 11.5 mph 17.3 mph N/A   Mostly Cloudy
7:52 PM 73.4 °F 62.8 °F 69% 29.91 in 10.0 mi SE 9.2 mph 17.3 mph N/A   Overcast
8:11 PM 73.4 °F 62.4 °F 68% 29.90 in 10.0 mi SE 10.4 mph - N/A   Overcast
8:32 PM 73.8 °F 61.5 °F 65% 29.91 in 10.0 mi SE 12.7 mph 18.4 mph N/A   Scattered Clouds
8:52 PM 74.1 °F 61.0 °F 63% 29.92 in 10.0 mi SSE 11.5 mph 19.6 mph N/A   Clear
9:11 PM 74.3 °F 61.2 °F 63% 29.92 in 10.0 mi SE 10.4 mph 18.4 mph N/A   Clear
9:32 PM 73.6 °F 61.0 °F 65% 29.92 in 10.0 mi SE 11.5 mph 19.6 mph N/A   Clear
9:52 PM 73.4 °F 61.0 °F 65% 29.91 in 10.0 mi SE 11.5 mph 21.9 mph N/A   Clear
10:11 PM 73.4 °F 61.0 °F 65% 29.92 in 10.0 mi SE 11.5 mph 18.4 mph N/A   Clear
10:32 PM 73.0 °F 60.8 °F 65% 29.92 in 10.0 mi SSE 13.8 mph 24.2 mph N/A   Clear
10:52 PM 73.0 °F 60.6 °F 65% 29.92 in 10.0 mi SSE 10.4 mph 21.9 mph N/A   Clear
11:11 PM 72.9 °F 60.4 °F 65% 29.93 in 10.0 mi SSE 13.8 mph 20.7 mph N/A   Clear
11:32 PM 72.9 °F 60.1 °F 64% 29.93 in 10.0 mi SSE 13.8 mph 26.5 mph N/A   Clear
11:52 PM 72.9 °F 59.9 °F 64% 29.92 in 10.0 mi SE 13.8 mph 23.0 mph N/A   Clear